Aeroporto :
LOGIN :

Iscrizione | Disclaimer

   EN    FR    IT 

 










Sommario :    VFR   VFR Marginale   IFR   IFR Intensivo   IFR Molto Intensivo
Visibilità : 
Base nubi : 
>= 8 km
>= 3000ft
5 / 8 km
1000 / 3000 ft
1500m / 5 km
500 / 1000 ft
800 / 1500m
200 / 500 ft
< 800m
< 200 ft
Simboli :   Temporali  Nebbia  Neve Forte  Precipitazioni Forti  Vento > 20 kt
SIGMETs :   Varie  Temporali  Ghiacco  Turbolenza  Onda orograficha  Ceneri Vulcaniche






- Altitudine del aeroporto : 218 ft
- Codice IATA : LBG


LFPB - Paris / Le Bourget

ULTIMO METAR :
  • 250330Z AUTO 02003KT CAVOK 10/08 Q1021 NOSIG

METARs OBSOLETI :
  • 250300Z AUTO 01002KT CAVOK 10/09 Q1021 NOSIG
  • 250230Z AUTO 36002KT CAVOK 10/09 Q1021 NOSIG
  • 250200Z AUTO 01002KT CAVOK 10/09 Q1021 NOSIG
  • 250130Z AUTO 00000KT CAVOK 11/09 Q1021 NOSIG
  • 250100Z AUTO 00000KT 8000 NSC 11/09 Q1021 NOSIG

TAF TAF LFPB
Valido dal 25 a 00 ore il 26 a 00 ore UTC


242300Z 2500/2524 34003KT CAVOK
PROB30
TEMPO 2514/2520 BKN030TCU
ATIS : +33 1 48 62 43 92



MetMap, La meteo Aeronautica in un colpo d'occhio ! - Copyright ORBIFLY Dicembre 2007 - Disclaimer

ORBIFLY MET'MAP TEAM :

Programmazione e sviluppo : Alexandra Zaïnal
Concezione : Baudouin d'Aumeries
Aiuto per la programmazione : Marc-Olivier Méhu
Supporto tecnico e logistico : Manuel Goepfert
Aiuto per la traduzione : Arnaldo La Scala

Contatto : metmap@orbifly.com




FONTI E CREDITI :

   NOAA